Hourly Data Report for July 15, 2021

PRINCE RUPERT
BRITISH COLUMBIA
Current Station Operator: NAVCAN

54°17'10.000" N
130°26'41.000" W
35.40 m
1066482
71022
YPR

Download Data

Hourly Data (July 2021)
Hourly Data Report for July 15, 2021
TIME
LST
Temp Definition
°C
Dew Point Definition
°C
Rel Hum Definition
%
Precip. Amount Definition
mm

Wind Dir Definition
10's deg

Wind Spd Definition
km/h
Visibility Definition
km
Stn Press Definition
kPa
Hmdx Definition


Wind Chill Definition


Weather Definition


00:00 12.0 9.8 86 0.0   0 16.1 101.21     LegendNANA
01:00 11.8 9.6 86 0.0 LegendMM 4 16.1 101.18     LegendNANA
02:00 11.5 9.3 86 0.0 LegendMM 4 16.1 101.17     LegendNANA
03:00 11.4 9.3 87 0.0 9 8 16.1 101.15     LegendNANA
04:00 11.3 9.1 86 0.0 9 4 16.1 101.11     LegendNANA
05:00 11.5 9.1 85 0.0 7 5 16.1 101.09     LegendNANA
06:00 12.5 9.0 79 0.0 11 8 16.1 101.07     LegendNANA
07:00 12.6 9.1 79 0.0 19 5 16.1 101.09     LegendNANA
08:00 14.6 10.0 74 0.0 21 8 16.1 101.04     LegendNANA
09:00 13.9 10.0 77 0.0 22 5 16.1 101.04     LegendNANA
10:00 14.9 10.5 75 0.0 15 8 16.1 101.02     LegendNANA
11:00 15.4 10.6 73 0.0 15 9 16.1 101.04     LegendNANA
12:00 15.6 10.4 71 0.0 17 11 16.1 101.03     LegendNANA
13:00 14.6 11.1 79 0.0 15 11 16.1 101.03     Rain
14:00 15.2 11.2 77 0.0 13 15 16.1 101.02     LegendNANA
15:00 14.5 12.5 87 0.0 14 11 12.9 101.01     Rain
16:00 14.0 12.4 90 0.8 15 15 16.1 100.99     Rain
17:00 14.4 12.1 86 0.0 15 18 16.1 100.93     LegendNANA
18:00 14.3 12.0 86 0.0 14 17 16.1 100.91     Rain
19:00 14.1 12.0 87 0.0 15 17 16.1 100.90     Rain
20:00 14.2 12.4 89 0.0 13 9 16.1 100.87     LegendNANA
21:00 14.0 12.2 89 0.0 16 5 16.1 100.85     LegendNANA
22:00 13.7 12.3 91 0.0 14 9 16.1 100.83     LegendNANA
23:00 13.4 12.0 91 0.0 15 5 16.1 100.83     Rain

Notes on Data Quality.

Legend

  • E = Estimated
  • M = Missing
  • NA = Not Available*
  • [empty] = Indicates an unobserved value
Date modified: